Weather in Korzhevka

Russia / Ulyanovsk Oblast     54°10′51″N   46°22′39″E
temp.,
°C
wind,
m/s
gust,
m/s
humid.,
%
clouds,
%
prec.,
mm/h
press.,
hPa
HPBL,
m
25 may, wed
wed2501:00+3wnw249294 0.1 1008263
04:00+1wnw229692 0.1 100963
07:00+3nw35857 0.0 1010298
10:00+7nw456184 0.1 10111498
13:00+9wnw455496 0.4 10121742
16:00+9wnw576099 1.0 10131403
19:00+8w477053 0.4 1013792
22:00+3wsw23885 0.5 101542
26 may, thu
thu2601:00+2sw22915 0.0 101532
04:00+1sw34935 0.0 101657
07:00+5sw368047 0.0 1015227
10:00+10sw565715 0.0 10141342
13:00+11wsw6860100 0.0 10141564
16:00+12sw5107287 0.2 10131527
19:00+13sw4773100 0.1 1011768
22:00+10s51283100 0.1 1010357
27 may, fri
fri2701:00+10s41278100 0.0 1008424
04:00+9s71694100 2.0 1005759
07:00+10s71494100 1.6 10021004
10:00+10sw81392100 2.4 10011127
13:00+10sw81591100 1.0 10011363
16:00+13wsw8148298 1.6 10021381
19:00+11wsw6128799 0.2 1004823
22:00+10wsw51188100 0.2 1006751
28 may, sat
sat2801:00+10wsw4109116 0.0 1008442
04:00+7ssw3797100 0.0 1009135
07:00+10ssw41190100 0.0 1009362
10:00+15ssw712665 0.0 1008988
13:00+20ssw8155975 0.0 10081756
16:00+14wsw61390100 0.6 1010859
19:00+14sw41191100 0.5 1011699
22:00+11ssw3896100 0.5 1013201
29 may, sun
sun2901:00+10ssw3596100 0.0 101494
04:00+9ssw3696100 0.0 1015116
07:00+12ssw3991100 0.0 1016301
10:00+11sw3895100 1.4 1017505
13:00+11ssw2697100 1.4 1018369
16:00+11ssw3696100 2.3 1019312
19:00+10sw2596100 0.7 1019251
22:00+9sw2395100 0.7 102061